Tracking 28125 objects as of 3-Oct-2023
HD Live streaming from Space Station
objects crossing your sky now

USA 325

Track USA 325 now!


NORAD ID: 51281
Int'l Code: 2022-006B
Perigee: 35,769.5 km
Apogee: 35,775.9 km
Inclination: 0.1 °
Period: 1,435.0 minutes
Semi major axis: 42143 km
RCS: Unknown
Launch date: January 21, 2022
Source: United States (US)
Launch site: AIR FORCE EASTERN TEST RANGE (AFETR)
Your satellite tracking list
Your tracking list is empty




NASA's NSSDC Master Catalog

Two Line Element Set (TLE):
1 51281U 22006B   23255.37847407  .00000082  00000-0  00000+0 0  9993
2 51281   0.0899  86.8893 0000767 164.1134  61.2593  1.00346896  6017
Source of the keplerian elements: McCants